Meath Environmental Platform

Observations

Time Sensor AQI SAQ Temp °C Hum % Pres Pa CO μg/m³ H₂S μg/m³ NO μg/m³ NO₂ μg/m³ O₃ μg/m³ SO₂ μg/m³ CO₂e PPM VOC PPM PM1 μg/m³ PM2.5 μg/m³ PM4 μg/m³ PM10 μg/m³ TPS µm
Tuesday 11 August 2026
10:43 Trim Market St 1 36.5 28 66,661 0 0 0.22 13.16 73.56 0 0 2.86 3.14
10:42 Trim Patrick St 1 30.1 39 69,238 0 0 0.85 9.31 57.42 12.43 3.71 10.27 11.29
10:41 Trim Patrick St 1 30.1 38 69,226 0 0 0.84 11.41 66.59 11.69 2.86 8.73 9.61
10:40 Trim Patrick St 1 30 41 69,208 0 0 0.84 9.07 67.69 11.74 2.86 7.77 8.55
10:40 Trim Market St 1 36.3 28 66,633 0 0 0.27 13.12 74.41 0 0.71 3.94 4.34
10:39 Trim Patrick St 1 30 41 69,189 0 0 0.84 8.39 61.61 13.24 2 7.76 8.54
10:38 Trim Patrick St 1 30 39 69,193 0 0 0.85 9.31 49.78 11.9 2.86 8.71 9.58
10:37 Trim Patrick St 1 30 40 69,169 0 0 0.84 9.54 46.9 10.98 2.86 8.62 9.48
10:37 Trim Market St 1 36.1 28 66,667 0 0 0.28 13.19 73.97 0 0.71 3.95 4.34
10:36 Trim Patrick St 1 30 39 69,167 0 0 0.83 9.12 39.04 12.97 3.71 8.66 9.53
10:35 Trim Patrick St 1 30 38 69,195 0 0 0.87 17.7 59.01 11.89 2 7.18 7.9
10:35 Trim Market St 1 36.1 28 66,619 0 0 0.27 13.24 67.13 0 0 3.96 4.35
10:31 Trim Patrick St 1 30 41 69,206 0 0 0.84 7.27 37.46 12.32 2.86 7.77 8.55
10:30 Trim Patrick St 1 30 39 69,222 0 0 0.84 8.99 50.17 10.87 2.86 7.92 8.71
10:28 Trim Patrick St 1 29.9 40 69,206 0 0 0.83 6.74 32.82 10.64 2 7.85 8.64
10:27 Trim Market St 1 35.7 28 66,596 0 0 0.33 13.06 64.71 0 0 3.38 3.72
10:27 Trim Patrick St 1 29.8 39 69,220 0 0 0.87 9.26 64.22 10.17 2 7.11 7.82
10:26 Trim Market St 1 35.6 29 66,578 0 0 0.33 13.03 66.25 0 0 3.37 3.7
10:26 Trim Patrick St 1 29.8 40 69,204 0 0 0.85 8.98 52.37 10.8 3.71 8.59 9.44
10:25 Trim Market St 1 35.6 29 66,550 0 0 0.31 13.09 75.9 0 0.71 3.37 3.7